RH
45 42 36 31 29 23 20 18 22 21 13 12 16 15 13 12 12 12 12 13 14 15 15 16 17 16 18 20 22 23 25 27 28 29 30 32 34 35 38 36 35 36 37 36 34
46 42 40 35 32 29 20 18 18 21 16 13 17 16 14 13 13 12 13 14 14 15 15 17 18 18 17 20 20 22 25 26 27 27 28 28 30 29 29 29 32 36 37 37 39
47 44 42 38 36 32 28 20 17 17 20 16 17 16 14 15 15 14 13 14 15 16 16 17 18 19 20 21 21 22 25 26 26 26 24 24 25 25 26 27 34 35 36 40 42
49 48 42 39 39 39 35 29 21 19 19 19 18 15 16 16 16 15 15 17 16 17 17 17 17 20 22 22 23 25 25 26 27 25 24 27 28 29 32 36 36 38 41 46 45
51 47 43 43 43 41 39 34 32 25 22 19 18 18 18 16 18 18 19 20 19 20 19 18 19 20 22 22 24 26 28 28 28 26 26 30 32 34 36 36 36 36 38 44 45
49 46 44 41 40 37 36 35 30 24 21 21 21 20 19 19 18 19 21 21 22 22 21 20 20 21 22 24 24 27 31 33 32 29 28 27 29 30 34 34 35 32 32 39 42
48 45 44 41 36 35 36 32 27 24 22 22 20 19 19 19 19 19 21 21 23 23 23 21 21 22 23 25 26 29 32 34 36 35 31 30 28 30 33 34 36 35 34 38 40
48 47 46 43 38 38 36 27 27 24 23 22 20 19 20 21 22 23 22 23 24 24 23 22 21 21 25 25 27 29 31 33 34 38 37 35 27 31 32 34 37 38 36 39 43
48 48 46 45 42 37 32 25 26 25 25 24 23 22 24 25 26 25 23 25 25 25 24 23 22 23 24 25 26 27 25 28 30 35 38 39 34 36 35 35 36 36 36 40 48
46 47 44 43 42 40 31 27 26 25 25 23 25 27 30 30 29 26 26 27 26 26 25 23 23 24 25 25 26 26 26 27 28 32 37 38 38 39 39 38 38 39 36 41 47
44 45 45 45 43 43 37 29 25 23 25 27 31 34 34 33 29 28 29 27 27 27 26 24 25 25 27 28 28 28 30 31 30 33 37 36 37 38 40 39 40 43 43 43 46
42 43 43 44 44 45 38 34 29 29 30 31 32 33 34 33 31 31 29 28 27 27 26 24 26 27 29 30 30 31 32 32 33 35 38 35 37 39 42 42 44 46 47 47 45
40 40 40 41 43 42 41 34 30 29 29 32 35 33 34 32 31 30 29 28 27 28 28 27 27 28 30 30 30 30 33 35 37 36 39 39 39 45 47 46 49 49 49 51 45
38 38 38 41 44 43 43 39 31 30 30 32 35 33 32 32 31 30 28 28 28 29 29 29 29 29 32 30 31 34 35 37 38 38 38 39 35 42 49 49 51 51 53 54 48
40 42 43 42 43 42 42 40 34 31 50 33 36 32 32 31 31 32 31 29 29 30 33 31 31 32 32 31 33 34 36 38 39 40 42 40 45 40 47 53 53 55 54 52 51
43 45 45 43 43 41 40 40 38 38 55 37 37 36 34 33 32 34 31 30 31 32 35 32 32 33 33 33 34 36 38 41 42 43 47 41 46 39 44 46 51 54 51 51 53
46 46 44 44 43 40 39 40 43 45 38 39 39 37 34 35 34 36 34 33 34 41 38 35 33 34 33 35 36 38 39 45 45 49 42 44 45 41 44 45 48 53 52 50 52
47 45 45 44 42 40 39 40 46 40 42 41 39 36 35 36 36 39 35 32 34 35 37 39 46 37 35 36 38 41 41 47 56 51 44 40 46 40 47 47 49 53 56 54 54
48 47 46 44 42 40 40 45 45 44 43 43 41 39 40 39 38 41 35 34 37 35 43 40 43 38 35 37 39 40 43 45 48 48 52 42 40 49 49 50 52 54 59 60 59
49 48 46 43 42 41 41 44 41 41 44 43 43 40 42 40 44 44 38 35 38 37 40 40 43 38 38 41 40 41 44 50 54 60 61 48 46 47 48 48 53 55 57 62 65
49 47 44 42 43 43 47 45 42 43 45 44 43 44 41 43 45 46 42 40 39 41 41 42 43 42 43 42 42 44 46 48 52 56 60 59 48 46 51 52 53 57 61 62 66
46 44 44 46 47 49 48 45 46 46 47 46 45 45 45 48 50 50 46 47 47 46 47 48 44 47 46 45 44 45 46 49 56 61 62 64 55 50 55 56 58 60 62 64 67
50 48 48 48 49 52 52 51 50 50 49 50 50 49 50 54 57 54 55 53 54 53 55 55 53 59 51 46 48 51 52 53 55 59 63 67 57 55 58 59 59 60 61 64 66
53 52 52 51 53 53 55 55 53 52 52 54 53 52 55 60 61 60 61 62 61 61 64 61 58 63 64 60 63 63 63 60 61 64 62 55 53 59 62 61 60 60 63 66 68
57 60 58 57 58 57 58 57 59 61 60 59 58 58 60 66 68 68 66 68 69 71 72 63 58 59 56 58 60 57 55 59 62 60 66 54 60 56 58 58 61 64 66 67 71
60 61 61 60 60 61 62 64 64 66 66 66 65 66 68 69 71 73 75 75 72 69 69 61 61 57 58 60 62 59 57 59 58 58 58 56 52 57 61 66 69 69 69 71 74
62 64 67 72 71 72 71 70 70 71 71 71 71 72 75 75 77 79 76 72 73 72 69 62 62 66 71 63 63 59 50 54 57 61 59 63 59 62 65 70 71 74 75 75 76